Wind_Speed
47 47 47 47 47 48 48 48 48 47 46 45 45 44 44 43 42 41 40 39 38 37 36 34 33 31 30 29 28 27 25 24 23 23 22 22 21 21
47 47 47 48 47 48 48 47 47 47 46 44 44 43 43 42 42 41 40 39 37 36 35 33 32 31 29 28 27 26 24 24 23 22 22 22 21 21
50 49 48 48 48 47 47 47 47 46 45 44 43 42 41 41 41 40 39 38 36 35 34 32 30 29 28 27 26 25 24 23 23 22 22 22 22 21
49 48 47 47 47 46 46 46 45 44 43 42 41 41 40 40 39 38 37 36 34 33 32 30 28 28 27 26 25 24 24 23 23 22 22 22 22 22
47 47 46 45 45 44 44 44 43 43 42 41 41 40 39 38 38 37 36 34 33 32 30 29 28 27 26 25 25 24 24 23 23 23 23 22 22 23
46 45 45 44 43 42 42 42 42 41 41 40 39 38 38 38 37 36 34 32 31 31 29 28 27 26 25 25 24 24 23 23 23 23 23 23 23 23
44 44 43 42 41 41 41 41 40 40 39 38 37 37 37 36 35 33 32 31 30 29 27 26 26 25 25 25 24 24 24 23 23 23 23 23 24 24
42 41 40 40 40 40 40 40 40 39 38 37 36 35 34 33 32 32 31 29 28 27 26 26 26 26 25 25 25 24 24 24 24 24 24 25 25 25
40 40 40 40 40 40 39 39 38 37 36 35 34 33 32 32 31 30 29 28 28 27 27 27 26 26 25 25 25 25 25 25 25 25 26 26 26 27
40 40 40 39 39 38 37 37 35 34 34 33 32 31 31 30 29 28 28 28 28 28 27 27 26 26 26 25 25 25 25 26 27 27 27 27 28 28
39 39 38 38 37 36 35 34 33 32 31 31 30 30 29 29 28 28 27 27 27 27 27 26 26 26 26 26 26 26 26 27 27 28 28 28 29 29
37 37 37 36 35 34 33 32 31 31 31 30 30 29 28 28 28 27 27 27 27 27 27 27 27 27 27 27 27 27 27 28 28 28 29 29 29 30
36 36 35 34 33 32 32 31 31 30 30 29 28 28 27 27 27 27 27 27 27 27 27 27 27 27 27 28 28 28 28 29 29 29 30 30 30 31
35 35 34 33 33 32 32 31 30 29 29 28 28 27 27 27 27 27 27 27 27 27 27 27 28 28 28 28 29 29 30 30 30 31 31 31 31 32
34 34 33 33 32 32 31 30 30 29 28 28 28 28 27 27 27 27 27 27 27 28 28 28 28 29 29 30 30 31 31 31 31 32 32 32 33 33
33 33 33 33 32 31 31 30 30 29 29 29 29 28 28 28 28 28 28 28 28 29 29 29 29 30 30 31 31 32 32 32 32 33 33 34 34 34
32 32 32 32 31 31 30 30 30 29 29 29 29 29 29 29 29 29 29 29 29 29 30 30 30 31 31 32 32 32 33 33 33 33 34 35 35 35
31 31 31 30 30 30 30 30 30 30 30 30 30 30 30 30 30 30 30 30 30 31 31 31 31 32 32 33 33 33 34 34 34 35 35 35 36 35
31 31 30 30 30 30 30 30 30 30 30 31 31 31 31 31 31 31 31 32 32 32 32 33 32 32 33 34 34 34 35 35 35 36 36 36 36 36
30 30 30 30 31 31 31 31 31 31 31 31 32 32 32 32 32 33 33 33 33 33 34 34 34 34 34 34 35 36 36 36 36 36 36 36 36 36
31 31 31 31 32 32 32 32 32 32 32 32 33 33 33 33 34 34 34 34 34 34 35 35 35 35 35 35 36 37 37 37 37 37 37 36 36 37
32 32 33 33 33 33 33 33 33 33 33 33 34 34 34 34 35 35 35 35 35 35 36 36 37 37 37 37 37 38 39 39 38 38 37 37 37 37
32 32 33 33 33 33 33 33 33 34 34 35 35 35 35 35 36 36 36 36 37 37 37 38 38 39 39 39 39 39 40 40 39 39 38 38 37 37
Wind_Direction
280 280 282 283 284 285 285 286 287 287 287 287 287 287 287 288 288 289 289 288 287 287 286 285 284 284 284 282 281 280 280 278 277 277 276 275 275 275
278 280 282 282 283 284 285 286 285 286 287 286 286 285 286 286 287 287 288 287 286 285 284 283 282 282 281 280 279 278 277 275 275 275 275 275 275 275
278 280 281 281 282 283 284 285 286 286 286 286 285 285 285 286 286 286 286 285 285 284 282 281 280 279 278 278 277 275 275 275 275 274 274 275 275 274
278 280 280 281 282 283 284 285 285 286 286 286 286 286 286 285 285 285 285 284 284 283 280 278 276 277 276 276 274 274 273 274 274 274 274 274 274 275
279 280 280 281 282 283 284 284 285 286 286 286 286 286 285 284 284 284 283 282 282 280 277 274 274 274 274 275 274 273 272 273 273 274 274 274 274 275
278 278 279 280 282 283 284 284 285 285 286 285 284 284 284 284 283 282 281 280 279 277 274 272 272 272 272 273 273 272 272 273 273 273 274 275 276 276
277 278 279 281 283 284 285 285 285 285 285 284 283 283 282 282 281 280 279 279 277 274 272 271 270 271 272 272 272 271 272 272 273 274 275 276 277 276
278 280 281 282 284 285 286 285 285 284 284 283 282 282 281 281 280 279 278 277 274 272 271 269 269 270 270 271 272 272 272 272 273 275 277 278 278 278
279 280 282 283 284 285 285 285 285 284 283 282 281 280 279 279 279 278 276 274 272 271 270 270 269 269 270 271 271 271 271 272 274 276 277 278 279 279
279 280 281 282 283 284 284 283 283 282 281 280 279 279 278 279 279 277 274 272 272 271 271 270 269 269 270 271 271 272 272 274 275 276 278 279 280 280
278 279 280 281 282 282 282 282 281 281 280 279 278 279 279 278 277 275 273 273 272 271 270 269 269 269 270 271 272 272 273 275 277 278 279 280 280 280
277 278 279 280 280 281 280 280 280 279 279 279 278 278 278 276 275 275 274 273 272 271 270 269 270 270 271 271 272 273 275 276 278 279 280 281 282 282
276 277 277 278 279 279 278 278 278 278 278 277 277 276 275 275 275 274 274 274 273 271 271 271 272 272 271 272 272 274 276 277 279 280 281 282 283 283
275 276 276 277 277 277 277 276 277 276 275 275 274 274 274 274 274 274 273 273 272 272 272 273 273 273 273 273 274 275 277 278 280 281 282 283 284 285
275 275 275 275 276 276 275 274 275 274 273 273 272 273 274 273 273 274 274 273 272 271 272 274 275 275 275 275 276 277 277 279 280 282 283 283 285 286
276 275 275 275 274 274 274 273 273 272 272 272 272 272 272 272 272 273 274 273 272 272 273 274 275 276 276 277 277 278 278 279 280 282 283 284 286 286
276 275 275 274 273 273 273 272 271 271 271 271 271 271 271 271 272 273 273 273 273 274 275 276 276 276 276 277 278 279 279 280 282 283 284 285 285 286
274 274 274 272 272 272 272 271 271 271 271 271 271 271 271 271 272 272 273 274 274 275 275 276 276 276 277 277 278 279 281 282 283 284 284 284 285 286
274 273 273 272 272 272 271 271 271 272 271 271 271 271 270 271 271 271 273 274 274 275 276 276 276 277 278 278 279 280 281 283 284 284 285 284 284 285
272 272 272 272 272 272 272 271 271 271 272 272 272 271 271 271 271 272 273 274 275 275 276 276 277 278 278 278 279 281 282 283 284 285 285 284 284 284
272 271 271 272 272 272 271 271 271 271 272 272 272 271 271 271 272 272 273 274 275 275 276 277 278 278 279 279 280 281 282 283 284 284 285 284 284 284
272 271 271 271 272 272 271 271 271 271 271 271 272 272 272 272 273 273 273 274 274 275 276 277 278 279 279 280 280 281 282 283 284 284 284 284 283 283
272 272 271 271 272 272 272 272 272 272 271 271 272 272 272 273 273 273 273 274 275 276 276 277 279 279 279 280 280 281 282 282 283 284 284 283 283 283
Height
5727 5726 5725 5724 5723 5722 5720 5719 5718 5717 5716 5714 5711 5708 5706 5704 5702 5701 5699 5697 5696 5694 5693 5692 5691 5690 5689 5688 5688 5687 5687 5687 5687 5687 5687 5687 5687 5687
5716 5715 5714 5713 5712 5710 5709 5707 5706 5705 5704 5703 5700 5697 5695 5693 5692 5690 5689 5687 5686 5684 5684 5683 5682 5682 5681 5680 5680 5680 5680 5680 5680 5680 5680 5680 5680 5681
5704 5703 5703 5702 5700 5699 5697 5696 5694 5693 5692 5691 5689 5687 5685 5683 5681 5680 5678 5677 5676 5675 5674 5674 5673 5673 5673 5672 5672 5672 5672 5672 5673 5673 5673 5673 5673 5674
5692 5692 5691 5690 5688 5687 5685 5684 5683 5681 5680 5679 5678 5676 5674 5673 5671 5670 5668 5667 5666 5665 5665 5665 5664 5664 5664 5664 5664 5664 5665 5665 5665 5665 5666 5666 5666 5667
5681 5680 5679 5678 5677 5676 5674 5673 5671 5670 5669 5668 5667 5665 5664 5662 5661 5660 5659 5658 5657 5657 5656 5656 5656 5656 5656 5656 5657 5657 5657 5658 5658 5658 5658 5659 5659 5659
5669 5669 5668 5667 5666 5664 5663 5662 5661 5659 5658 5657 5656 5655 5653 5652 5651 5650 5649 5649 5648 5648 5647 5648 5648 5648 5649 5649 5649 5649 5650 5650 5650 5651 5651 5651 5651 5652
5658 5657 5657 5656 5654 5654 5652 5651 5650 5648 5647 5646 5645 5644 5643 5642 5641 5641 5640 5640 5639 5639 5639 5640 5640 5641 5641 5641 5641 5642 5642 5643 5643 5643 5643 5644 5644 5644
5647 5646 5646 5645 5644 5643 5642 5640 5639 5638 5637 5636 5635 5634 5633 5633 5632 5632 5631 5631 5631 5632 5632 5632 5633 5633 5633 5633 5634 5634 5634 5635 5635 5636 5636 5636 5636 5635
5636 5636 5635 5634 5633 5632 5631 5630 5629 5627 5627 5626 5625 5625 5624 5624 5623 5623 5623 5623 5623 5624 5624 5624 5625 5625 5625 5626 5626 5626 5627 5627 5627 5628 5627 5627 5627 5626
5625 5625 5624 5624 5623 5622 5620 5619 5619 5618 5617 5616 5616 5616 5615 5615 5615 5615 5615 5615 5615 5615 5616 5616 5617 5617 5617 5618 5618 5618 5619 5619 5619 5619 5619 5618 5618 5617
5615 5614 5614 5613 5612 5611 5610 5610 5609 5608 5608 5607 5607 5607 5606 5606 5606 5606 5607 5607 5607 5607 5608 5608 5609 5609 5609 5610 5610 5610 5610 5610 5610 5610 5610 5609 5608 5607
5604 5604 5603 5603 5602 5601 5601 5600 5600 5599 5599 5599 5598 5598 5598 5598 5598 5598 5599 5599 5599 5599 5600 5600 5600 5601 5601 5601 5602 5602 5602 5602 5601 5601 5600 5599 5598 5597
5594 5593 5593 5593 5592 5592 5591 5591 5591 5590 5590 5590 5590 5590 5590 5590 5590 5590 5590 5591 5591 5591 5592 5592 5592 5592 5593 5593 5593 5593 5593 5592 5592 5591 5590 5589 5588 5587
5584 5583 5583 5583 5583 5582 5582 5582 5581 5581 5581 5581 5581 5581 5582 5582 5582 5582 5582 5582 5583 5583 5583 5583 5583 5584 5584 5584 5584 5584 5583 5583 5582 5581 5580 5579 5578 5576
5574 5573 5573 5573 5573 5573 5572 5572 5572 5572 5573 5573 5573 5573 5573 5574 5574 5574 5574 5574 5574 5574 5574 5575 5575 5575 5575 5574 5574 5574 5573 5573 5572 5571 5569 5568 5567 5565
5564 5563 5563 5563 5563 5563 5563 5563 5563 5564 5564 5564 5564 5564 5565 5565 5565 5565 5565 5565 5565 5565 5565 5565 5565 5565 5565 5565 5564 5563 5563 5562 5561 5560 5559 5557 5556 5554
5554 5554 5554 5553 5553 5554 5554 5554 5554 5554 5555 5555 5555 5556 5556 5556 5556 5556 5556 5556 5556 5556 5556 5556 5556 5555 5555 5554 5554 5553 5552 5551 5551 5549 5548 5546 5544 5543
5544 5544 5544 5544 5544 5544 5544 5545 5545 5545 5545 5546 5546 5546 5546 5547 5547 5547 5547 5547 5547 5546 5546 5546 5546 5545 5545 5544 5544 5542 5541 5540 5539 5538 5536 5535 5532 5531
5535 5534 5534 5535 5535 5535 5535 5535 5535 5535 5536 5536 5536 5536 5537 5537 5537 5537 5537 5537 5537 5536 5536 5536 5535 5535 5534 5533 5533 5532 5531 5529 5528 5526 5525 5523 5521 5519
5525 5525 5525 5525 5525 5525 5525 5525 5525 5526 5526 5526 5526 5526 5526 5526 5527 5527 5527 5526 5526 5526 5525 5525 5525 5524 5523 5523 5521 5520 5519 5517 5516 5514 5513 5511 5509 5507
5515 5515 5515 5515 5515 5515 5515 5515 5515 5515 5515 5515 5515 5515 5515 5515 5516 5516 5516 5515 5515 5515 5514 5513 5513 5512 5511 5511 5510 5508 5506 5505 5504 5502 5501 5499 5497 5495
5504 5505 5505 5505 5505 5505 5505 5505 5505 5505 5504 5504 5504 5504 5504 5504 5504 5504 5504 5504 5503 5503 5502 5502 5501 5500 5499 5499 5497 5496 5494 5492 5491 5490 5488 5487 5485 5483
5494 5494 5494 5494 5494 5494 5494 5494 5494 5494 5493 5493 5493 5493 5493 5493 5493 5492 5492 5492 5491 5491 5490 5489 5488 5487 5486 5486 5484 5483 5481 5479 5478 5476 5475 5473 5473 5471